#timestamp,LO_Frequency,Hit,StdDev 
1584039615.4,286046998.3,N
1584039635.2,286046998.1,N
1584039655.1,286047000.9,N
1584039656.0,286047000.9,N
1584039675.8,286047000.7,N
1584039695.6,286047000.4,N
1584039715.5,286046999.0,N
1584039735.3,286047000.2,N
1584039755.2,286047000.0,N
1584039775.9,286047000.3,N
1584039795.7,286047000.5,N
1584039815.6,286047000.6,N
1584039835.4,286046998.3,N
1584039855.3,286047000.4,N
1584039875.1,286047002.1,N
1584039895.8,286047001.4,N
1584039915.7,286047002.1,N
1584039935.5,286047002.7,N
1584039955.4,286046998.2,N
1584039975.2,286046998.1,N
1584039995.0,286047000.9,N
1584039995.9,286047000.9,N
1584040015.8,286046998.7,N
1584040035.6,286047000.9,N
1584040055.4,286047000.1,N
1584040075.3,286046999.9,N
1584040095.1,286047002.1,N
1584040115.9,286046998.3,N
1584040135.7,286046999.9,N
1584040155.5,286047000.2,N
1584040175.4,286047002.5,N
1584040195.2,286046998.1,N
1584040215.1,286047000.2,N
1584040216.0,286047000.2,N
1584040235.8,286046998.0,N
1584040255.6,286046996.1,N
1584040275.5,286046997.7,N
1584040295.3,286046997.7,N
1584040315.1,286046997.2,N
1584040335.9,286046996.7,N
1584040355.7,286046999.6,N
1584040375.6,286046997.8,N
1584040395.4,286046995.4,N
1584040415.2,286046995.7,N
1584040435.1,286046994.2,N
1584040436.0,286046994.2,N
1584040455.8,286046993.9,N
1584040475.7,286046993.3,N
1584040495.5,286046995.4,N
1584040515.3,286046996.0,N
1584040535.2,286046997.5,N
1584040555.0,286046995.5,N
1584040555.9,286046995.5,N
1584040575.7,286046995.6,N
1584040595.6,286046995.0,N
1584040615.4,286046995.4,N
1584040635.3,286046993.3,N
1584040655.1,286046996.2,N
1584040675.8,286046995.8,N
1584040695.7,286046996.0,N
1584040715.5,286046993.5,Y
1584040735.4,286046997.1,P
1584040755.2,286046996.5,P
1584040775.0,286046997.9,P
1584040775.9,286046997.9,Y
1584040795.8,286046998.1,P
1584040815.6,286047001.2,N
1584040835.5,286046998.3,N
1584040855.3,286046998.6,N
1584040875.1,286046998.6,N
1584040895.9,286046999.2,N
1584040915.7,286046999.5,N
1584040935.6,286046999.5,N
1584040955.4,286046996.5,Y
1584040975.2,286046998.6,P
1584040995.1,286046997.6,P
1584040996.0,286046997.6,P
1584041015.8,286046997.4,Y
1584041035.7,286046996.5,P
1584041055.5,286046998.7,N
1584041075.3,286046998.8,N
1584041095.2,286047000.6,N
1584041115.0,286047006.9,Y
1584041115.9,286047006.9,P
1584041135.8,286047001.5,N
1584041155.6,286046998.7,N
1584041175.4,286047001.0,N
1584041195.3,286047001.1,N
1584041215.1,286046998.1,N
1584041235.9,286046999.1,N
1584041255.7,286046998.3,N
1584041275.5,286046998.8,N
1584041295.4,286046996.6,N
1584041315.2,286047000.4,N
1584041335.1,286047000.0,N
1584041336.0,286047000.0,N
1584041355.8,286047001.0,N
1584041375.6,286046998.6,N
1584041395.5,286046999.5,N
1584041415.3,286046999.9,N
1584041435.2,286047002.5,N
1584041455.9,286046999.9,N
1584041475.7,286047000.4,N
1584041495.6,286047002.0,N
1584041515.4,286047004.1,N
1584041535.2,286047001.3,N
1584041555.1,286047000.0,N
1584041556.0,286047000.0,N
1584041575.8,286047000.9,N
1584041595.7,286046999.7,N
1584041615.5,286046999.0,N
1584041635.3,286046996.5,N
1584041655.2,286047002.1,N
1584041675.0,286047002.3,N
1584041675.9,286047002.3,N
1584041695.8,286047001.0,N
1584041715.6,286046999.1,N
1584041735.4,286046995.3,N
1584041755.3,286047000.4,N
1584041775.1,286047000.6,N
1584041795.8,286047000.1,N
1584041815.7,286046999.8,N
1584041835.5,286047003.8,N
1584041855.4,286047004.4,N
1584041875.2,286047001.6,N
1584041895.0,286046998.6,N
1584041895.9,286046998.6,N
1584041915.8,286047000.8,N
1584041935.6,286046998.7,N
1584041955.5,286046998.3,N
1584041975.3,286046998.9,N
1584041995.1,286047000.2,N
1584042015.9,286047002.3,N
1584042035.7,286047001.5,N
1584042055.5,286047005.9,N
1584042075.4,286047004.2,N
1584042095.2,286047003.9,N
1584042115.1,286047003.0,N
1584042116.0,286047003.0,N
1584042135.8,286047005.5,N
1584042155.6,286047007.2,N
1584042175.5,286047004.1,N
1584042195.3,286047003.9,N
1584042215.2,286047008.0,Y
1584042235.9,286047004.0,P
1584042255.7,286047001.3,N
1584042275.6,286047003.3,N
1584042295.4,286047003.9,Y
1584042315.2,286046999.7,P
1584042335.1,286047000.2,N
1584042336.0,286047000.2,N
1584042355.8,286047000.2,N
1584042375.7,286046998.2,N
1584042395.5,286047001.0,N
1584042415.3,286047002.1,N
1584042435.2,286047002.5,N
1584042455.0,286047001.3,N
1584042455.9,286047001.3,N
1584042475.8,286047003.1,N
1584042495.6,286047002.0,N
1584042515.5,286047002.9,N
1584042535.3,286047002.6,N
1584042555.1,286047000.0,N
1584042575.9,286046998.1,N
1584042595.7,286046999.7,N
1584042615.6,286047000.3,N
1584042635.4,286047001.6,N
1584042655.2,286047002.3,N
1584042675.1,286047001.5,N
1584042676.0,286047001.5,N
1584042695.8,286047004.2,Y
1584042715.6,286047002.0,P
1584042735.5,286047001.3,N
1584042755.3,286047003.5,P
1584042775.2,286047001.8,N
1584042795.9,286047002.4,N
1584042815.7,286046998.1,N
1584042835.6,286047000.5,N
1584042855.4,286047002.5,N
1584042875.3,286047001.6,N
1584042895.1,286047002.4,N
1584042896.0,286047002.4,N
1584042915.8,286047001.8,N
1584042935.7,286047002.3,N
1584042955.5,286047004.0,Y
1584042975.4,286047002.5,P
1584042995.2,286046998.3,P
1584043015.0,286047000.5,N
1584043015.9,286047000.5,N
1584043035.8,286047000.6,N
1584043055.6,286047002.6,N
1584043075.4,286046998.6,N
1584043095.3,286046997.1,N
1584043115.1,286046996.6,N
1584043135.9,286047002.1,N
1584043155.7,286047004.1,N
1584043175.5,286047001.7,N
1584043195.4,286047000.7,N
